Location: Unspecified
(51.5147°N, 7.4673°E)
Time: 06:02:38
(UTC+01:00)

A-11 Canister half - Pass Details

Date: 20 February 2026
Orbit: 1524 x 1683 km, 47.3° (Epoch: 14 March)

Event Time Altitude Azimuth Distance (km) Brightness Sun altitude
Rises 21:28:58 0° 283° (WNW) 4,682 12.5 -33.3°
Reaches altitude 10° 21:32:07 10° 278° (W) 3,694 11.7 -33.7°
Maximum altitude 21:40:50 47° 208° (SSW) 1,933 9.3 -34.9°
Enters shadow 21:41:16 47° 201° (SSW) 1,940 9.3 -34.9°
